DW0067 Weather Reports


time (UTC)temp
C
wind
direction
speed
KPH
gust
KPH
rain 1hr
cm
rain 24hr
cm
rain mn
cm
humidity
%
barometer
mb
20260505111704 16 248 0.0 0.0 0.00 0.00 0.00 59 1009.4
20260505110703 16 248 0.0 0.0 0.00 0.00 0.00 58 1009.4
20260505110203 16 248 0.0 0.0 0.00 0.00 0.00 60 1009.4
20260505102203 15 248 0.0 0.0 0.00 0.00 0.00 59 1008.9
20260505101704 15 248 0.0 0.0 0.00 0.00 0.00 59 1009.6
20260505101203 16 248 0.0 0.0 0.00 0.00 0.00 63 1009.6
20260505100703 16 248 0.0 0.0 0.00 0.00 0.00 64 1009.6
20260505100204 15 248 0.0 0.0 0.00 0.00 0.00 65 1009.6
20260505095704 15 248 0.0 0.0 0.00 0.00 0.00 65 1009.4
20260505095203 15 248 0.0 0.0 0.00 0.00 0.00 65 1009.4
20260505094703 15 248 0.0 0.0 0.00 0.00 0.00 64 1009.4
20260505094203 15 248 0.0 0.0 0.00 0.00 0.00 65 1009.4
20260505093203 14 248 0.0 0.0 0.00 0.00 0.00 65 1009.9
20260505092203 14 248 0.0 0.0 0.00 0.00 0.00 68 1009.9
20260505091722 13 248 0.0 0.0 0.00 0.00 0.00 69 1010.1
20260505090704 13 248 0.0 0.0 0.00 0.00 0.00 70 1010.1
20260505085703 13 248 0.0 0.0 0.00 0.00 0.00 71 1010.6
20260505085203 13 248 0.0 0.0 0.00 0.00 0.00 71 1010.6
20260505084703 13 248 0.0 0.0 0.00 0.00 0.00 72 1010.6
20260505084203 13 248 0.0 0.0 0.00 0.00 0.00 73 1010.6
20260505083703 12 248 0.0 0.0 0.00 0.00 0.00 73 1011.3
20260505083203 12 248 0.0 0.0 0.00 0.00 0.00 73 1011.3
20260505082703 12 248 0.0 0.0 0.00 0.00 0.00 73 1011.3
20260505082204 12 248 0.0 0.0 0.00 0.00 0.00 74 1011.3
20260505081203 12 248 0.0 0.0 0.00 0.00 0.00 77 1012.0
20260505080703 11 248 0.0 0.0 0.00 0.00 0.00 76 1012.0
20260505080203 11 248 0.0 0.0 0.00 0.00 0.00 75 1012.0
20260505075703 11 248 0.0 0.0 0.00 0.00 0.00 76 1012.8
20260505075204 11 248 0.0 0.0 0.00 0.00 0.00 78 1012.8
20260505074704 11 248 0.0 0.0 0.00 0.00 0.00 79 1012.8
20260505074203 10 248 0.0 0.0 0.00 0.00 0.00 80 1012.8
20260505073703 10 248 0.0 0.0 0.00 0.00 0.00 80 1012.6
20260505073203 10 248 0.0 0.0 0.00 0.00 0.00 81 1012.6
20260505072703 10 248 0.0 0.0 0.00 0.00 0.00 81 1012.6
20260505071203 10 248 0.0 0.0 0.00 0.00 0.00 81 1012.9
20260505070703 10 248 0.0 0.0 0.00 0.00 0.00 81 1012.9
20260505070203 10 248 0.0 0.0 0.00 0.00 0.00 80 1012.9
20260505065703 10 248 0.0 0.0 0.00 0.00 0.00 80 1013.4
20260505065203 10 248 0.0 0.0 0.00 0.00 0.00 79 1013.4
20260505064703 9 248 0.0 0.0 0.00 0.00 0.00 79 1013.4
20260505064203 9 248 0.0 0.0 0.00 0.00 0.00 79 1013.4
20260505063703 9 248 0.0 0.0 0.00 0.00 0.00 79 1013.4
20260505062703 8 248 0.0 0.0 0.00 0.00 0.00 79 1013.4
20260505062203 8 248 0.0 0.0 0.00 0.00 0.00 79 1013.4
20260505061703 8 248 0.0 0.0 0.00 0.00 0.00 80 1013.3
20260505061204 8 248 0.0 0.0 0.00 0.00 0.00 80 1013.3
20260505060702 8 248 0.0 0.0 0.00 0.00 0.00 80 1013.3
20260505060203 8 248 0.0 0.0 0.00 0.00 0.00 80 1013.3
20260505055204 7 248 0.0 0.0 0.00 0.00 0.00 81 1013.5
20260505054703 7 248 0.0 0.0 0.00 0.00 0.00 81 1013.5
20260505054203 7 248 0.0 0.0 0.00 0.00 0.00 81 1013.5
20260505053203 7 248 0.0 0.0 0.00 0.00 0.00 81 1013.4
20260505052704 7 248 0.0 0.0 0.00 0.00 0.00 81 1013.4
20260505051703 8 248 0.0 0.0 0.00 0.00 0.00 81 1013.4
20260505051203 8 248 0.0 0.0 0.00 0.00 0.00 81 1013.4
20260505050703 8 248 0.0 0.0 0.00 0.00 0.00 82 1013.4
20260505050203 8 248 0.0 0.0 0.00 0.00 0.00 82 1013.4
20260505041203 8 248 0.0 0.0 0.00 0.00 0.00 82 1013.5
20260505040703 8 248 0.0 0.0 0.00 0.00 0.00 82 1013.5
20260505040202 9 248 0.0 0.0 0.00 0.00 0.00 82 1013.5
20260505035704 9 248 0.0 0.0 0.00 0.00 0.00 82 1013.3
20260505035203 9 248 0.0 0.0 0.00 0.00 0.00 82 1013.3
20260505034703 9 248 0.0 0.0 0.00 0.00 0.00 82 1013.3
20260505034204 9 248 0.0 0.0 0.00 0.00 0.00 82 1013.3
20260505033703 10 248 0.0 0.0 0.00 0.00 0.00 82 1013.1
20260505033204 10 248 0.0 0.0 0.00 0.00 0.00 82 1013.1
20260505032703 10 248 0.0 0.0 0.00 0.00 0.00 82 1013.1
20260505032204 10 248 0.0 0.0 0.00 0.00 0.00 82 1013.1
20260505031703 10 248 0.0 0.0 0.00 0.00 0.00 82 1012.8
20260505030203 10 248 0.0 0.0 0.00 0.00 0.00 82 1012.8
20260505025703 10 248 0.0 0.0 0.00 0.00 0.00 82 1012.7
20260505025203 10 248 0.0 0.0 0.00 0.00 0.00 82 1012.7
20260505024204 10 248 0.0 0.0 0.00 0.00 0.00 82 1012.7
20260505023703 10 248 0.0 0.0 0.00 0.00 0.00 82 1013.0
20260505023203 10 248 0.0 0.0 0.00 0.00 0.00 82 1013.0
20260505022703 10 248 0.0 0.0 0.00 0.00 0.00 82 1013.0
20260505022203 10 248 0.0 0.0 0.00 0.00 0.00 82 1013.0
20260505021703 10 248 0.0 0.0 0.00 0.00 0.00 82 1012.9
20260505021203 10 248 0.0 0.0 0.00 0.00 0.00 82 1012.9
20260505020704 10 248 0.0 0.0 0.00 0.00 0.00 82 1012.9
20260505020203 10 248 0.0 0.0 0.00 0.00 0.00 82 1012.9
20260505015703 10 248 0.0 0.0 0.00 0.00 0.00 82 1012.9
20260505015203 10 248 0.0 0.0 0.00 0.00 0.00 81 1012.9
20260505014703 10 248 0.0 0.0 0.00 0.00 0.00 81 1012.9
20260505014204 10 248 0.0 0.0 0.00 0.00 0.00 81 1012.9
20260505013703 10 248 0.0 0.0 0.00 0.00 0.00 81 1013.2
20260505013203 11 248 0.0 0.0 0.00 0.00 0.00 81 1013.2
20260505012703 11 248 0.0 0.0 0.00 0.00 0.00 81 1013.2
20260505012203 11 248 0.0 0.0 0.00 0.00 0.00 81 1013.2
20260505011703 11 248 0.0 0.0 0.00 0.00 0.00 81 1013.1
20260505011204 11 248 0.0 0.0 0.00 0.00 0.00 81 1013.1
20260505010703 11 248 0.0 0.0 0.00 0.00 0.00 82 1013.1
20260505010204 11 248 0.0 0.0 0.00 0.00 0.00 82 1013.1
20260505005704 11 248 0.0 0.0 0.00 0.00 0.00 82 1013.2
20260505005203 11 248 0.0 0.0 0.00 0.00 0.00 82 1013.2
20260505004703 11 248 0.0 0.0 0.00 0.00 0.00 82 1013.2
20260505004203 11 248 0.0 0.0 0.00 0.00 0.00 81 1013.2
20260505003704 11 248 0.0 0.0 0.00 0.00 0.00 81 1013.2
20260505002704 11 248 0.0 0.0 0.00 0.00 0.00 81 1013.2
20260505002204 11 248 0.0 0.0 0.00 0.00 0.00 81 1013.2
20260505001704 11 248 0.0 0.0 0.00 0.00 0.00 81 1013.4
20260505001204 11 248 0.0 0.0 0.00 0.00 0.00 81 1013.4
20260505000703 11 248 0.0 0.0 0.00 0.00 0.00 81 1013.4
20260504235703 11 248 0.0 0.0 0.00 0.00 0.00 81 1013.3
20260504235203 11 248 0.0 0.0 0.00 0.00 0.00 81 1013.3
20260504234204 11 248 0.0 0.0 0.00 0.00 0.00 81 1013.3
20260504233703 11 248 0.0 0.0 0.00 0.00 0.00 81 1013.2
20260504233203 11 248 0.0 0.0 0.00 0.00 0.00 81 1013.2
20260504232703 11 248 0.0 0.0 0.00 0.00 0.00 81 1013.2
20260504231703 11 248 0.0 0.0 0.00 0.00 0.00 81 1013.3
20260504231203 11 248 0.0 0.0 0.00 0.00 0.00 81 1013.3
20260504230703 11 248 0.0 0.0 0.00 0.00 0.00 81 1013.3
20260504230203 11 248 0.0 0.0 0.00 0.00 0.00 81 1013.3
20260504225203 12 248 0.0 0.0 0.00 0.00 0.00 81 1013.4
20260504224203 12 248 0.0 0.0 0.00 0.00 0.00 81 1013.4
20260504223703 12 248 0.0 0.0 0.00 0.00 0.00 81 1013.3
20260504223203 12 248 0.0 0.0 0.00 0.00 0.00 81 1013.3
20260504222703 12 248 0.0 0.0 0.00 0.00 0.00 81 1013.3
20260504222203 12 248 0.0 0.0 0.00 0.00 0.00 81 1013.3
20260504221703 12 248 0.0 0.0 0.00 0.00 0.00 81 1013.3
20260504221203 12 248 0.0 0.0 0.00 0.00 0.00 81 1013.3
20260504220703 12 248 0.0 0.0 0.00 0.00 0.00 81 1013.3
20260504215703 12 248 0.0 0.0 0.00 0.00 0.00 81 1013.2
20260504215204 12 248 0.0 0.0 0.00 0.00 0.00 81 1013.2
20260504214703 12 248 0.0 0.0 0.00 0.00 0.00 81 1013.2
20260504213703 12 248 0.0 0.0 0.00 0.00 0.00 80 1013.2
20260504212703 12 248 0.0 0.0 0.00 0.00 0.00 80 1013.2
20260504211203 12 248 0.0 0.0 0.00 0.00 0.00 80 1012.9
20260504210204 12 248 0.0 0.0 0.00 0.00 0.00 80 1012.9
20260504205703 12 248 0.0 0.0 0.00 0.00 0.00 80 1013.2
20260504205204 12 248 0.0 0.0 0.00 0.00 0.00 80 1013.2
20260504204703 12 248 0.0 0.0 0.00 0.00 0.00 80 1013.2
20260504204203 12 248 0.0 0.0 0.00 0.00 0.00 80 1013.2
20260504203703 12 248 0.0 0.0 0.00 0.00 0.00 80 1013.1
20260504202703 12 248 0.0 0.0 0.00 0.00 0.00 80 1013.1
20260504202203 12 248 0.0 0.0 0.00 0.00 0.00 80 1013.1
20260504200703 13 248 0.0 0.0 0.00 0.00 0.00 80 1013.0
20260504195704 13 248 0.0 0.0 0.00 0.00 0.00 80 1012.8
20260504195203 13 248 0.0 0.0 0.00 0.00 0.00 80 1012.8
20260504194704 13 248 0.0 0.0 0.00 0.00 0.00 80 1012.8
20260504194203 13 248 0.0 0.0 0.00 0.00 0.00 80 1012.8
20260504193704 13 248 0.0 0.0 0.00 0.00 0.00 80 1012.6
20260504192704 13 248 0.0 0.0 0.00 0.00 0.00 79 1012.6
20260504192203 13 248 0.0 0.0 0.00 0.00 0.00 79 1012.6
20260504191704 13 248 0.0 0.0 0.00 0.00 0.00 79 1012.4
20260504190703 13 248 0.0 0.0 0.00 0.00 0.00 79 1012.4
20260504190204 13 248 0.0 0.0 0.00 0.00 0.00 79 1012.4
20260504185203 13 248 0.0 0.0 0.00 0.00 0.00 79 1012.3
20260504184704 13 248 0.0 0.0 0.00 0.00 0.00 79 1012.3
20260504184204 13 248 0.0 0.0 0.00 0.00 0.00 79 1012.3
20260504183704 13 248 0.0 0.0 0.00 0.00 0.00 78 1012.3
20260504183203 13 248 0.0 0.0 0.00 0.00 0.00 78 1012.3
20260504182703 13 248 0.0 0.0 0.00 0.00 0.00 78 1012.3
20260504182203 13 248 0.0 0.0 0.00 0.00 0.00 78 1012.3
20260504181703 13 248 0.0 0.0 0.00 0.00 0.00 78 1011.8
20260504181203 13 248 0.0 0.0 0.00 0.00 0.00 78 1011.8
20260504180703 13 248 0.0 0.0 0.00 0.00 0.00 78 1011.8
20260504180203 13 248 0.0 0.0 0.00 0.00 0.00 78 1011.8
20260504174704 13 248 0.0 0.0 0.00 0.00 0.00 77 1011.7
20260504174203 13 248 0.0 0.0 0.00 0.00 0.00 77 1011.7
20260504173703 14 248 0.0 0.0 0.00 0.00 0.00 78 1011.6
20260504173203 14 248 0.0 0.0 0.00 0.00 0.00 77 1011.6
20260504172703 14 248 0.0 0.0 0.00 0.00 0.00 77 1011.6
20260504171703 14 248 0.0 0.0 0.00 0.00 0.00 77 1011.5
20260504171204 14 248 0.0 0.0 0.00 0.00 0.00 77 1011.5
20260504170704 14 248 0.0 0.0 0.00 0.00 0.00 77 1011.5
20260504170203 14 248 0.0 0.0 0.00 0.00 0.00 77 1011.5
20260504160203 15 248 0.0 0.0 0.00 0.00 0.00 74 1011.8
20260504150703 17 248 0.0 0.0 0.00 0.00 0.00 69 1010.3
20260504150204 17 248 0.0 0.0 0.00 0.00 0.00 70 1010.3
20260504141203 17 248 0.0 0.0 0.00 0.00 0.00 67 1010.4
20260504140703 17 248 0.0 0.0 0.00 0.00 0.00 66 1010.4
20260504140203 17 248 0.0 0.0 0.00 0.00 0.00 66 1010.4
20260504130703 17 248 0.0 0.0 0.00 0.00 0.00 68 1010.4
20260504130204 17 248 0.0 0.0 0.00 0.00 0.00 68 1010.4
20260504120203 17 248 0.0 0.0 0.00 0.00 0.00 71 1010.5